Regional Weather Roundup
Issued by NWS

Home | Current Version | Previous Version | Text Only | Print | Product List | Glossary On
Versions: 1 2 3 4 5 6 7 8 9 10 11 12 13 14 15 16 17 18 19 20 21 22 23 24 25 26 27 28 29 30 31 32 33 34 35 36 37 38 39 40 41 42 43 44 45 46 47 48 49 50
000
ASUS46 KLOX 201812
RWRCA

SOUTHERN CALIFORNIA WEATHER ROUNDUP
NATIONAL WEATHER SERVICE OXNARD CALIFORNIA
1100 AM PDT SAT SEP 20 2014

NOTE: "FAIR" INDICATES FEW OR NO CLOUDS BELOW 12,000 FEET WITH NO
SIGNIFICANT WEATHER AND/OR OBSTRUCTIONS TO VISIBILITY.

  -  STATIONS PRECEEDED BY AN ASTERISK (*) ARE NOT NWS OR FAA
     STATIONS AND ARE NOT SUBJECT TO NWS AND FAA QUALITY CONTROL.

CAZ041-042-087-201900-
LA AND ORANGE COUNTY COASTAL AREAS


CITY           SKY/WX    TMP DP  RH WIND       PRES   REMARKS
L.A. DOWNTOWN  CLOUDY    73  62  68 CALM      29.95S
L.A. AIRPORT   CLOUDY    71  61  70 W6        29.97R
LONG BEACH     CLOUDY    72  64  76 SW6       29.96R

CITY           SKY/WX    TMP DP  RH WIND       PRES   REMARKS
AVALON           N/A     72 N/A N/A SE6         N/A
FULLERTON      CLOUDY    74  61  63 CALM      29.94S
*GETTY CENTER    N/A     64  61  88 SW3         N/A
HAWTHORNE      CLOUDY    72  62  71 SW3       29.96S
*LEO CARRILLO    N/A     73  64  73 E2          N/A
*LOS ALAMITOS  CLOUDY    72  65  78 SW7       29.95S
*REDONDO BEACH   N/A     71  63  75 CALM      29.96R
SANTA ANA      CLOUDY    75  62  64 SW7       29.95S
STA MONICA APT CLOUDY    71  60  68 CALM      29.97R
TORRANCE       CLOUDY    73  64  73 NW8       29.97R
*UCLA            N/A     68  59  73 W6        29.94S

$$

CAZ547-548-048-201900-
LA COUNTY VALLEYS AND INLAND EMPIRE


CITY           SKY/WX    TMP DP  RH WIND       PRES   REMARKS
BURBANK        CLOUDY    68  60  75 S3        29.97R
VAN NUYS       CLOUDY    68  60  75 CALM      29.98R

CITY           SKY/WX    TMP DP  RH WIND       PRES   REMARKS
CORONA AIRPORT PTCLDY    76  62  61 NW8       29.96S
*CHATSWORTH      N/A     68  62  80 W3        29.94R
CHINO          PTSUNNY   74  62  66 W3        29.97S
MARCH AFB      SUNNY     73  61  64 NW3       29.97S
*NORTHRIDGE      N/A     68  59  73 E1          N/A
ONTARIO        MOSUNNY   73  60  63 S3        29.96S
*PASADENA        N/A     70  63  78 E2          N/A
POMONA         MOSUNNY   72  59  64 W8        29.99S
RIVERSIDE      MOSUNNY   73  61  65 W7        29.96S
SAN BERNARDINO NOT AVBL
*SAN GABRIEL     N/A     72  60  66 CALM      29.93R
*SAN RAFAEL HI   N/A     67  66  97 S2          N/A
*SAUGUS          N/A     72  60  67 S12         N/A
*WHITEMAN AP   CLOUDY    66  59  77 CALM      30.01S
*WHITTIER HILL   N/A     69  64  85 SW5         N/A
*WOODLAND HILL   N/A    N/A N/A N/A N2          N/A

$$

CAZ054-055-201900-
LA AND SAN BERNARDINO COUNTY MOUNTAINS


CITY           SKY/WX    TMP DP  RH WIND       PRES   REMARKS
*BIG BEAR AIRP MOCLDY    68  41  37 SE9G16    30.22R
*CHILAO          N/A     71  48  43 SE17        N/A
MT WILSON NWS    N/A     72  50  46 SE1         N/A
SANDBERG       SUNNY     75  48  38 S6        30.09R
*WARM SPRINGS    N/A     71  56  58 S2          N/A

$$

CAZ028-029-059-060-099-201900-
ANTELOPE VALLEY AND SURROUNDING AREAS


CITY           SKY/WX    TMP DP  RH WIND       PRES   REMARKS
LANCASTER      SUNNY     79  49  34 VRB3      29.98F
PALMDALE       SUNNY     79  49  34 CALM      29.98F
*POPPY PARK      N/A     83  49  30 SE6         N/A

CITY           SKY/WX    TMP DP  RH WIND       PRES   REMARKS
29 PALMS       SUNNY     86  50  28 E5        30.01S
BARSTOW/DAGGET SUNNY     85  49  28 NW6       29.94F
BISHOP         MOSUNNY   80  35  19 NE5       30.07F
CHINA LAKE     SUNNY     87  41  19 N5        29.96F
EDWARDS AFB    MOSUNNY   76  51  40 VRB2      29.96F
MOJAVE         FAIR      79  48  34 E8        29.99F
NEEDLES        MOSUNNY   93  49  22 E3        29.87F HX  90
VICTORVILLE    MOSUNNY   81  46  30 CALM      30.00S

$$

CAZ039-040-201900-
VENTURA AND SANTA BARBARA COUNTY COAST


CITY           SKY/WX    TMP DP  RH WIND       PRES   REMARKS
CAMARILLO      CLOUDY    76  61  59 CALM      29.96S
NWS OXNARD       N/A     73  62  69 S1        29.95F
OXNARD AIRPORT CLOUDY    72  61  68 S5        29.96S
*POINT MUGU    CLOUDY    78  62  57 S7        29.96S
SBA APT/GOLETA CLOUDY    72  61  68 S5        29.96S
*SANTA BARBARA   N/A     73  61  65 CALM      30.04S
*VENTURA         N/A     73  62  68 CALM      30.02S

$$

CAZ044-045-201900-
VENTURA COUNTY VALLEYS


CITY           SKY/WX    TMP DP  RH WIND       PRES   REMARKS
*SIMI VALLEY     N/A     70  62  76 CALM      29.93S
*OJAI            N/A     78  62  58 CALM      29.89F
*FILLMORE        N/A     75  64  67 CALM      29.86F

$$

CAZ053-201900-
VENTURA COUNTY MOUNTAINS


CITY           SKY/WX    TMP DP  RH WIND       PRES   REMARKS
*LOCKWOOD VLY    N/A     70  45  40 MISG        N/A
*ROSE VALLEY     N/A     73  59  60 MISG        N/A

$$

CAZ034-035-036-201900-
CENTRAL COAST AND SANTA YNEZ VALLEY


CITY           SKY/WX    TMP DP  RH WIND       PRES   REMARKS
SAN LUIS OBISP PTSUNNY   68  60  75 CALM      29.97S
SANTA MARIA    PTSUNNY   68  59  73 CALM      29.98S

CITY           SKY/WX    TMP DP  RH WIND       PRES   REMARKS
*CAL POLY SLO    N/A     64  61  88 SE3         N/A
*LOMPOC        CLOUDY    72  59  64 W3        29.98S
*PISMO BEACH     N/A     63  60  90 SW3       29.98S
*SANTA YNEZ    FAIR      70  57  64 CALM      29.96F

$$

CAZ037-038-051-201900-
SAN LUIS OBISPO COUNTY INTERIOR AND CUYAMA VALLEY


CITY           SKY/WX    TMP DP  RH WIND       PRES   REMARKS
*CUYAMA          N/A     75  56  51 NW1       29.88S
PASO ROBLES    SUNNY     71  57  61 CALM      29.95F

$$

CAZ032-033-061-201900-
SOUTHERN DESERTS


CITY           SKY/WX    TMP DP  RH WIND       PRES   REMARKS
BLYTHE         PTSUNNY   90  66  45 S3        29.85S HX  92
IMPERIAL       SUNNY     92  63  38 NE8       29.81F HX  93
PALM SPRINGS   SUNNY     92  56  29 CALM      29.87S HX  90
THERMAL        SUNNY     93  65  39 VRB5      29.80F HX  95

$$

ELSEWHERE ACROSS THE WESTERN UNITED STATES AND MEXICO


CITY           SKY/WX    TMP DP  RH WIND       PRES   REMARKS
DENVER, CO     MOSUNNY   71  49  45 CALM      30.27F
GRAND CANYON,  MOSUNNY   78  50  37 NE14      30.25F
HONOLULU, HI   MOSUNNY   82  70  65 VRB3      29.93R
KAHULUI, MAUI  MOSUNNY   81  66  61 CALM      29.94R
LAKE TAHOE, CA SUNNY     76  33  21 NE12G20   30.19S
LAS VEGAS, NV  MOSUNNY   91  40  16 CALM      29.91F
MAMMOTH LAKES, FAIR      70  32  24 E20G25    30.25F
MEXICO CITY, M MOSUNNY   72  54  53 NE8       30.32F
PHOENIX, AZ    PTSUNNY   93  63  36 SW7       29.88F HX  94
PORTLAND, OR   SUNNY     71  58  63 NW5       29.97F
RENO, NV       MOSUNNY   76  38  25 W3        30.12F
SALT LAKE CITY SUNNY     75  49  39 NW8       30.17F
SAN DIEGO, CA  PTSUNNY   75  60  59 W9        29.96S
SAN FRANCISCO, MOSUNNY   71  62  73 N3        29.95R
SAN JOSE, CA   MOSUNNY   67  60  78 CALM      29.95R
SEATTLE, WA    CLOUDY    60  56  86 N15       30.10F FOG
TIJUANA, MEX   MOSUNNY   75  57  53 CALM      29.97F

$$

STATION/POSITION TIME  TEMP    WIND        PRES    VSBY  WAVE
                       AIR SEA DIR/SP/G                  HT/PER
                 (UTC) (F)     (DEG/KT/KT) (MB)    (MI)  (FT/S)
POINT ARGUELLO B NOT AVBL
WEST SANTA BARBA 1800   64 65  300/  4/  6 1014.2R         4/10
POINT CONCEPTION NOT AVBL
EAST SANTA BARBA 1800   64 66  330/  4/  6 1014.9R
SANTA MONICA BAY 1800   68 72  280/  6/  8 1014.3R         3/14


USA.gov is the U.S. government's official web portal to all federal, state and local government web resources and services.